Weather History for Dallas/Ft Worth, TX

Change the Weather History Date:

Wednesday, February 22, 2012

  Actual Average Record
Temperature  
Mean Temperature 67 °F 52 °F  
Max Temperature 79 °F 62 °F 93 °F (1996)
Min Temperature 55 °F 41 °F 19 °F (1963)
Degree Days  
Heating Degree Days 0 14  
Month to date heating degree days 321 351  
Since 1 July heating degree days 1618 1856  
Cooling Degree Days 2 0  
Month to date cooling degree days 2 0  
Year to date cooling degree days 5 2  
Growing Degree Days 17 (Base 50)    
Moisture  
Dew Point 43 °F    
Average Humidity 55    
Maximum Humidity 93    
Minimum Humidity 17    
Precipitation  
Precipitation 0.00 in 0.10 in 2.01 in (2000)
Month to date precipitation 1.88 2.03  
Year to date precipitation 8.06 4.16  
Snow  
Snow 0.00 in 0.00 in 2.70 in (1966)
Month to date snowfall 0.3 0.4  
Since 1 July snowfall 0.3 1.0  
Snow Depth 0.00 in    
Sea Level Pressure  
Sea Level Pressure 29.69 in    
Wind  
Wind Speed 12 mph (SW)    
Max Wind Speed 24 mph    
Max Gust Speed 30 mph    
Visibility 10 miles    
Events      
T = Trace of Precipitation, MM = Missing Value Source: NWS Daily Summary

Daily Weather History Graph

Daily Weather History Graph

Search for Another Location

Airport:

Trip Planner

Search our weather history database for the weather conditions in past years. The results will help you decide how hot, cold, wet, or windy it might be!

Date:

Astronomy

Feb. 22, 2012 Rise Set
Actual Time 7:04 AM CST 6:19 PM CST
Civil Twilight 6:39 AM CST 6:44 PM CST
Nautical Twilight 6:10 AM CST 7:12 PM CST
Astronomical Twilight 5:42 AM CST 7:41 PM CST
Moon 7:08 AM CST (2/22) 7:20 PM CST (2/22)
Length of Visible Light 12h 04m
Length of Day
11h 14m
New Moon, 1% of the Moon is Illuminated
Feb 22
New Moon
Feb 29
First Quarter
Mar 8
Full
Mar 14
Last Quarter
Mar 22
New

Hourly Weather History & Observations

Time (CST) Temp. Dew Point Humidity Pressure Visibility Wind Dir Wind Speed Gust Speed Precip Events Conditions
12:53 AM 61.0 °F 54.0 °F 78% 29.83 in 10.0 mi SSW 16.1 mph - N/A   Clear
1:53 AM 60.1 °F 54.0 °F 80% 29.82 in 10.0 mi SSW 17.3 mph - N/A   Clear
2:53 AM 57.9 °F 54.0 °F 87% 29.80 in 10.0 mi South 11.5 mph - N/A   Clear
3:53 AM 60.1 °F 55.0 °F 83% 29.78 in 10.0 mi SSW 16.1 mph - N/A   Clear
4:53 AM 59.0 °F 54.0 °F 83% 29.78 in 10.0 mi SSW 12.7 mph - N/A   Partly Cloudy
5:53 AM 57.9 °F 54.0 °F 87% 29.78 in 10.0 mi SW 13.8 mph - N/A   Partly Cloudy
6:53 AM 55.0 °F 53.1 °F 93% 29.76 in 10.0 mi SSW 12.7 mph - N/A   Partly Cloudy
7:53 AM 57.9 °F 53.1 °F 84% 29.75 in 10.0 mi SSW 12.7 mph - N/A   Partly Cloudy
8:53 AM 62.1 °F 53.1 °F 72% 29.77 in 10.0 mi WSW 11.5 mph - N/A   Partly Cloudy
9:53 AM 66.9 °F 48.0 °F 51% 29.76 in 10.0 mi WSW 17.3 mph - N/A   Partly Cloudy
10:53 AM 70.0 °F 39.9 °F 33% 29.75 in 10.0 mi West 17.3 mph - N/A   Partly Cloudy
11:53 AM 73.0 °F 37.9 °F 28% 29.72 in 10.0 mi WSW 17.3 mph 25.3 mph N/A   Partly Cloudy
12:53 PM 75.9 °F 34.0 °F 22% 29.70 in 10.0 mi West 13.8 mph - N/A   Partly Cloudy
1:53 PM 77.0 °F 33.1 °F 20% 29.65 in 10.0 mi WSW 12.7 mph - N/A   Partly Cloudy
2:53 PM 78.1 °F 33.1 °F 19% 29.64 in 10.0 mi WSW 12.7 mph - N/A   Partly Cloudy
3:53 PM 79.0 °F 30.9 °F 17% 29.63 in 10.0 mi WNW 15.0 mph - N/A   Partly Cloudy
4:53 PM 78.1 °F 30.9 °F 18% 29.62 in 10.0 mi West 9.2 mph - N/A   Partly Cloudy
5:53 PM 75.0 °F 33.1 °F 22% 29.61 in 10.0 mi SW 11.5 mph - N/A   Partly Cloudy
6:53 PM 72.0 °F 32.0 °F 23% 29.62 in 10.0 mi WNW 3.5 mph - N/A   Partly Cloudy
7:53 PM 63.0 °F 35.1 °F 35% 29.60 in 10.0 mi South 6.9 mph - N/A   Partly Cloudy
8:53 PM 63.0 °F 37.0 °F 38% 29.58 in 10.0 mi South 10.4 mph - N/A   Partly Cloudy
9:53 PM 62.1 °F 37.0 °F 39% 29.57 in 10.0 mi South 8.1 mph - N/A   Partly Cloudy
10:53 PM 59.0 °F 37.0 °F 44% 29.55 in 10.0 mi SE 3.5 mph - N/A   Partly Cloudy
11:53 PM 57.9 °F 39.0 °F 49% 29.51 in 10.0 mi South 10.4 mph - N/A   Clear